CAPE
0 0 0 0 0 0 0 0 0 0 1 40 61 43 249 272 137 113 64 30 19 1 0 8 62 147 230 352 242 178 62 24 0 0 23 72 104 227 340 593 763 924 940 1071
0 0 0 0 0 0 0 0 0 0 0 1 21 33 205 317 227 148 82 42 22 3 0 10 69 89 158 271 294 160 82 22 0 0 109 305 426 516 813 861 801 1070 1034 1211
0 0 0 0 0 0 0 0 0 0 0 0 0 5 20 352 391 272 43 7 4 5 6 19 64 80 102 191 310 230 186 177 0 60 189 216 346 322 446 693 886 969 1202 1325
0 0 0 0 0 0 0 0 0 0 0 0 0 0 0 124 219 279 265 134 3 0 0 0 40 70 98 207 179 186 257 243 129 49 90 72 166 299 450 635 723 1009 1188 1262
0 0 0 0 0 0 0 0 0 0 0 0 0 0 0 18 191 233 384 321 233 112 14 8 13 33 68 77 121 46 127 200 171 95 108 146 215 359 547 412 531 803 1036 1195
0 0 0 0 0 0 0 0 0 0 0 0 0 0 0 0 9 204 484 480 379 276 234 215 83 34 0 25 68 0 13 61 117 138 81 95 144 245 303 313 315 428 773 1014
0 0 0 0 0 0 0 0 0 0 0 0 0 0 0 0 0 50 182 269 423 425 292 294 261 126 55 60 53 28 0 40 83 136 111 65 117 165 82 227 208 232 388 751
0 0 0 0 0 0 0 0 0 0 0 0 0 0 0 0 0 0 99 196 398 504 399 348 339 251 138 128 134 67 42 60 46 80 166 170 164 162 142 213 170 184 131 303
0 0 0 0 0 0 0 0 0 0 0 0 0 0 0 0 0 0 0 154 310 497 490 414 412 309 206 145 204 132 130 89 72 58 150 230 227 218 197 201 222 188 174 105
0 0 0 0 0 0 0 0 0 0 0 0 0 0 0 0 0 0 0 31 117 338 533 532 455 420 244 166 176 168 150 111 135 83 123 210 235 289 269 299 155 191 219 124
0 0 0 0 0 0 0 0 0 0 0 0 0 0 0 0 0 0 0 0 21 113 261 483 589 517 393 220 243 226 143 183 177 136 138 183 266 326 339 293 307 279 243 271
0 0 0 0 0 0 0 0 0 0 0 0 0 0 0 0 0 0 0 0 2 46 177 382 533 551 490 423 332 269 228 233 205 202 159 142 266 326 344 315 360 394 301 315
1 1 0 0 0 0 0 0 0 0 0 0 0 0 0 0 0 0 0 0 0 51 229 384 442 497 535 596 507 449 327 264 291 261 206 200 248 327 361 422 444 463 408 370
4 0 0 0 0 0 0 0 0 0 0 0 0 0 0 0 0 0 0 0 0 0 58 229 314 357 460 567 640 610 468 352 315 298 311 345 358 357 451 527 541 565 524 430
1 0 0 0 0 0 0 0 0 0 0 0 0 0 0 0 0 0 0 0 0 0 0 31 139 195 289 421 595 698 593 434 393 425 464 493 511 539 600 703 694 697 672 577
2 0 0 0 0 0 0 0 0 0 0 0 0 0 0 0 0 0 0 0 0 0 0 0 151 213 265 443 382 563 598 493 497 546 613 662 687 698 737 777 821 820 691 633
1 0 0 0 0 0 0 0 0 0 0 0 0 0 0 0 0 0 0 0 0 0 0 7 4 169 261 393 448 417 529 577 532 572 639 778 841 815 826 875 953 1015 932 956
1 0 5 0 0 0 0 0 0 0 0 0 0 0 0 3 0 0 0 0 0 0 0 2 52 25 438 368 508 478 605 655 594 567 586 787 900 894 931 949 947 946 1086 1172
1 7 4 1 5 1 76 0 0 0 0 0 0 0 0 0 0 0 0 0 0 0 0 5 96 125 0 481 558 647 780 842 765 644 686 773 925 1001 1107 1093 1091 1075 1037 1018
1 14 4 0 0 3 3 2 0 2 0 0 0 0 0 0 0 0 0 0 0 0 1 290 778 294 4 551 701 773 898 980 876 875 898 984 976 1002 1121 1234 1299 1396 1403 1357
3 6 0 4 5 0 2 1 0 3 0 0 0 0 0 0 0 0 0 0 0 1 5 996 488 542 631 738 794 865 993 960 1099 1258 1256 1269 1271 1295 1327 1414 1587 1754 1799 1857
3 3 0 0 2 0 1 0 3 0 0 0 0 0 0 0 0 0 0 0 0 0 0 288 993 645 829 706 761 856 983 1235 1376 1464 1429 1480 1458 1438 1655 1701 1825 1897 2033 2096
0 0 0 0 0 1 7 4 7 3 0 0 0 0 0 0 0 0 0 0 0 0 0 0 259 599 1211 1106 1031 1058 1213 1311 1260 1372 1461 1576 1770 1842 1974 2106 2179 2226 2340 2327
0 3 0 0 2 4 7 3 11 8 0 0 0 0 0 0 0 0 0 0 0 0 0 0 0 0 209 868 1127 1474 1559 1264 1226 1336 1566 1819 1987 2119 2294 2429 2459 2500 2608 2632
1 1 0 0 3 3 0 12 9 8 2 0 0 0 0 0 0 0 0 0 0 0 0 0 0 0 0 5 245 729 1087 2167 1886 1597 1565 1666 1851 1999 2392 2435 2463 2604 2741 2765
3 1 0 0 5 8 3 3 4 3 6 5 2 0 0 1 0 0 0 0 0 0 0 0 0 0 0 0 0 1 169 905 1247 1721 2076 1963 2586 1997 2146 2246 1342 490 751 893
CIN
0 0 0 0 0 0 0 0 0 0 -9 -91 -70 -92 -127 -203 -249 -265 -280 -295 -273 -41 0 -73 -118 -65 -51 -50 -88 -110 -92 -81 -1 -1 -196 -115 -86 -70 -72 -62 -65 -54 -44 -37
0 0 0 0 0 0 0 0 0 0 0 -13 -68 -72 -117 -165 -183 -201 -245 -333 -324 -112 0 -88 -151 -108 -63 -58 -82 -111 -124 -87 0 0 -125 -97 -73 -57 -43 -47 -51 -52 -46 -37
0 0 0 0 0 0 0 0 0 0 0 0 0 -43 -82 -148 -178 -178 -266 -272 -122 -307 -341 -290 -193 -158 -106 -84 -74 -94 -110 -116 0 -145 -112 -107 -78 -71 -49 -42 -34 -44 -45 -37
0 0 0 0 0 0 0 0 0 0 0 0 0 0 0 -82 -203 -203 -203 -248 -100 0 0 0 -236 -172 -160 -128 -121 -98 -92 -99 -115 -154 -129 -120 -86 -66 -58 -42 -34 -35 -46 -37
0 0 0 0 0 0 0 0 0 0 0 0 0 0 0 -20 -97 -159 -188 -205 -233 -278 -314 -337 -329 -252 -212 -154 -148 -137 -95 -93 -93 -137 -139 -114 -79 -62 -60 -57 -39 -26 -40 -43
0 0 0 0 0 0 0 0 0 0 0 0 0 0 0 0 -58 -111 -160 -173 -218 -242 -264 -254 -273 -250 0 -196 -188 -1 -123 -121 -112 -116 -140 -138 -109 -86 -80 -81 -63 -52 -26 -34
0 0 0 0 0 0 0 0 0 0 0 0 0 0 0 0 0 -102 -128 -160 -210 -261 -290 -268 -271 -296 -260 -228 -232 -219 0 -168 -146 -128 -135 -150 -139 -118 -125 -93 -83 -72 -59 -40
0 0 0 0 0 0 0 0 0 0 0 0 0 0 0 0 0 -17 -106 -113 -165 -244 -280 -286 -281 -309 -318 -284 -265 -250 -253 -199 -204 -179 -152 -152 -141 -150 -141 -117 -108 -104 -102 -70
0 0 0 0 0 0 0 0 0 0 0 0 0 0 0 0 0 0 0 -133 -155 -226 -289 -298 -287 -317 -310 -284 -281 -303 -277 -248 -221 -222 -179 -160 -159 -167 -167 -162 -154 -134 -131 -135
0 0 0 0 0 0 0 0 0 0 0 0 0 0 0 0 0 0 0 -142 -123 -184 -256 -263 -303 -307 -329 -312 -272 -286 -282 -280 -260 -221 -208 -182 -183 -202 -183 -179 -198 -166 -141 -152
0 0 0 0 0 0 0 0 0 0 0 0 0 0 0 0 0 0 0 0 -139 -150 -217 -259 -287 -343 -343 -326 -309 -285 -280 -258 -255 -242 -225 -207 -202 -208 -210 -212 -194 -172 -146 -122
0 0 0 0 0 0 0 0 0 0 0 0 0 0 0 0 0 0 0 0 -160 -160 -205 -236 -274 -303 -335 -341 -330 -314 -308 -251 -267 -258 -256 -271 -236 -231 -221 -233 -220 -197 -175 -147
-1 -1 0 0 0 0 0 0 0 0 0 0 0 0 0 0 0 0 0 0 0 -171 -215 -228 -240 -270 -322 -344 -334 -331 -350 -303 -262 -272 -280 -264 -263 -261 -253 -240 -214 -224 -204 -176
-7 0 0 0 0 0 0 0 0 0 0 0 0 0 0 0 0 0 0 0 0 0 -247 -258 -272 -297 -301 -390 -401 -363 -346 -312 -310 -306 -294 -290 -305 -284 -266 -249 -238 -229 -228 -192
-2 0 0 0 0 0 0 0 0 0 0 0 0 0 0 0 0 0 0 0 0 0 0 -309 -319 -341 -371 -377 -428 -433 -385 -355 -339 -362 -329 -322 -329 -303 -281 -258 -249 -246 -236 -218
-13 -1 0 0 0 0 0 0 0 0 0 0 0 0 0 0 0 0 0 0 0 0 0 0 -362 -336 -376 -389 -479 -524 -496 -465 -390 -386 -363 -336 -339 -318 -308 -282 -271 -263 -270 -251
-10 0 0 0 0 -1 0 0 0 0 0 0 0 0 0 0 0 0 0 0 0 0 0 -564 -166 -381 -385 -400 -524 -547 -563 -541 -477 -421 -372 -352 -364 -351 -338 -317 -290 -279 -267 -248
-3 0 -1 0 0 0 0 0 0 0 0 0 0 0 0 -41 0 0 0 0 0 0 0 -287 -656 -628 -419 -413 -451 -534 -553 -585 -537 -451 -400 -395 -387 -370 -367 -356 -353 -333 -283 -245
-9 0 -2 -1 -1 -6 -3 0 -1 0 0 0 0 0 0 0 0 0 0 0 0 0 0 -273 -792 -704 -21 -439 -459 -596 -572 -577 -532 -426 -419 -433 -426 -391 -373 -376 -363 -344 -337 -317
-1 -2 -2 -2 0 -1 0 0 0 -1 0 0 0 0 0 0 -6 0 0 0 0 0 -10 -731 -612 -610 -149 -463 -503 -629 -586 -572 -487 -409 -406 -440 -441 -403 -385 -363 -342 -324 -309 -282
0 0 0 -1 -1 -1 0 0 0 0 -1 0 0 0 0 0 0 0 0 0 0 0 -101 -415 -591 -459 -475 -498 -580 -594 -560 -484 -457 -438 -449 -446 -439 -421 -393 -362 -347 -307 -282 -253
-2 -1 -1 -1 -1 0 0 0 0 0 0 0 0 0 0 0 0 0 0 0 0 0 0 -622 -438 -506 -457 -506 -521 -512 -488 -516 -483 -438 -433 -428 -417 -393 -371 -377 -345 -323 -294 -284
0 0 0 0 0 0 0 0 0 0 0 0 0 0 0 0 0 0 0 0 0 0 0 0 -613 -523 -393 -434 -432 -407 -436 -474 -442 -407 -378 -369 -371 -369 -343 -341 -319 -292 -284 -282
0 0 0 0 0 0 0 -1 -1 -1 0 0 0 0 0 0 0 0 0 0 0 0 0 0 0 0 -729 -479 -436 -381 -390 -450 -450 -416 -384 -354 -357 -353 -322 -293 -284 -284 -272 -273
0 0 0 0 0 0 -1 -1 0 0 0 0 0 0 0 0 0 0 0 0 0 0 0 0 0 0 0 -266 -681 -552 -458 -241 -300 -347 -343 -353 -363 -372 -313 -302 -308 -311 -273 -277
0 0 0 0 0 0 0 0 0 0 0 0 0 0 0 0 0 0 0 0 0 0 0 0 0 0 0 0 0 -284 -729 -416 -361 -266 -206 -258 -145 -241 -303 -309 -502 -840 -697 -574
Wind_Speed
18 23 20 23 27 29 30 27 35 27 27 27 32 32 18 19 2 5 11 17 21 25 32 34 36 43 42 41 40 41 41 39 37 36 34 32 31 29 26 25 24 23 22 21
23 34 27 28 29 30 34 30 33 36 26 31 27 35 24 15 12 7 14 17 19 19 27 34 37 42 44 43 43 43 42 41 39 36 33 29 30 28 26 25 25 24 23 22
31 28 25 27 28 31 35 36 31 30 31 34 29 38 32 22 20 13 8 12 15 20 24 33 36 41 46 45 44 45 44 41 41 38 34 28 26 25 27 24 25 26 25 23
34 32 25 31 35 31 38 35 38 34 31 37 32 42 34 30 18 13 15 18 21 23 30 30 33 41 45 47 45 46 45 42 42 42 40 39 36 34 32 29 26 26 25 24
32 30 34 37 33 32 37 32 38 41 39 38 35 39 44 29 37 31 33 21 20 19 20 23 33 40 48 46 46 45 44 43 42 45 43 41 38 35 33 31 29 28 27 25
33 30 31 37 34 27 30 28 32 37 41 52 47 41 44 35 39 20 32 19 18 17 18 20 29 34 46 45 47 42 44 47 47 47 46 44 38 35 35 33 32 31 29 26
32 35 32 29 33 33 32 32 35 38 43 57 41 46 49 34 34 31 16 14 20 16 19 24 21 28 39 44 43 41 38 50 49 48 47 40 39 35 31 30 32 32 31 29
37 40 34 31 41 35 37 36 37 43 43 48 38 49 45 49 37 31 35 33 22 13 16 24 27 29 36 32 40 38 40 51 50 50 47 42 39 40 37 34 34 34 33 31
36 39 31 34 33 38 35 48 39 38 36 43 44 50 44 39 46 44 37 32 24 15 14 19 28 30 40 46 46 49 42 50 51 51 47 47 44 40 38 35 36 36 34 32
29 41 34 33 33 40 41 36 42 44 51 49 39 45 51 41 41 39 40 36 31 20 13 16 19 30 42 47 48 43 45 48 48 50 51 49 46 44 39 39 38 38 36 34
25 34 37 34 36 45 43 41 42 43 48 52 49 43 41 47 42 40 37 44 39 27 16 16 21 24 37 46 46 49 43 39 41 46 49 50 49 47 43 42 42 39 14 12
24 31 42 42 34 31 37 45 48 49 51 56 48 51 28 36 40 42 42 37 40 34 19 14 17 15 17 25 30 41 43 47 36 37 35 43 44 43 44 43 43 30 13 10
21 29 41 42 39 32 39 39 42 47 45 56 56 53 35 31 31 30 35 36 38 40 34 21 13 15 17 19 21 23 30 40 29 28 26 29 37 36 44 33 33 31 14 11
23 28 36 44 37 35 40 39 39 47 56 55 50 50 50 46 36 34 30 31 31 35 37 29 21 15 18 18 19 20 22 29 22 22 23 26 23 21 21 21 32 38 27 14
25 33 34 41 42 43 47 50 47 49 51 54 53 47 43 44 48 43 38 32 31 30 30 30 24 18 16 22 27 22 25 26 19 19 21 24 27 28 31 26 35 35 21 15
25 33 32 42 40 42 48 50 50 49 51 50 47 48 37 33 36 34 35 33 33 33 33 32 33 24 21 27 19 21 20 20 20 20 19 25 27 28 29 25 28 29 18 15
28 31 32 39 31 37 47 52 50 47 41 47 51 41 35 37 32 31 33 34 36 36 37 38 38 34 24 18 17 20 20 19 20 19 21 24 27 29 28 25 23 19 16 21
25 28 30 38 34 43 34 26 40 40 36 39 41 38 35 30 24 25 27 32 35 37 38 41 41 40 36 21 17 17 17 20 20 22 22 25 25 25 23 20 18 21 22 16
29 27 31 35 36 33 30 25 31 37 37 32 35 33 35 36 33 28 26 29 33 37 39 41 43 43 42 29 23 17 17 17 20 22 22 22 21 21 20 18 21 22 21 25
28 31 33 32 34 38 29 29 28 32 43 27 26 28 30 28 33 29 28 29 30 32 35 39 42 42 38 27 24 20 19 17 17 17 18 19 19 18 17 23 26 26 25 30
26 31 37 36 35 31 25 28 29 40 36 24 22 22 22 22 23 25 23 23 24 24 27 29 31 33 27 29 24 23 20 19 15 16 18 19 20 21 23 25 26 26 25 28
31 31 30 31 31 33 23 23 33 26 23 21 19 19 20 19 17 17 17 17 17 18 18 18 18 19 23 26 26 25 21 17 15 15 19 21 22 24 26 25 26 25 23 24
23 25 24 25 27 24 24 24 28 23 23 21 19 19 19 18 15 15 14 12 13 13 10 8 5 5 10 19 25 25 23 20 16 14 17 20 21 24 26 24 24 23 23 25
14 12 18 21 19 21 16 18 22 23 22 21 18 20 17 17 16 15 13 12 10 8 5 3 1 4 9 10 13 16 19 21 20 18 15 20 21 22 25 25 25 26 26 27
8 14 15 17 17 18 16 17 17 20 20 19 18 19 18 17 16 16 16 14 12 10 7 5 3 4 7 6 8 10 13 14 18 24 25 23 22 21 24 26 26 26 27 27
16 15 13 13 16 13 11 14 13 13 16 17 19 20 18 18 19 18 18 17 16 14 11 9 8 7 6 7 7 9 11 12 13 15 18 20 24 28 24 26 27 24 23 24
Wind_Direction
258 252 235 253 255 255 254 256 245 247 245 248 244 241 263 251 226 143 138 145 152 161 167 172 176 199 194 192 188 192 197 199 203 200 200 202 196 200 204 198 189 175 173 167
260 254 258 259 256 255 252 255 249 245 253 247 255 241 257 252 248 191 157 157 157 156 164 174 180 188 195 197 196 197 202 206 205 209 214 221 212 213 214 213 203 190 176 172
256 266 257 254 253 252 251 250 250 251 253 248 255 246 248 257 258 254 195 173 168 168 167 175 179 187 201 197 197 201 205 213 209 214 219 227 228 228 216 222 211 192 179 176
260 256 261 253 251 250 251 251 248 251 255 248 249 246 247 252 249 217 186 178 174 173 178 176 179 190 195 201 209 210 212 217 217 210 208 202 207 205 204 210 214 199 182 180
261 257 251 253 255 249 252 255 250 247 251 253 249 248 241 252 244 191 190 185 183 183 182 179 183 189 203 216 216 217 218 219 220 204 204 202 205 201 210 213 213 211 198 183
266 266 255 253 252 253 253 256 254 250 248 247 241 246 244 245 239 238 190 189 190 192 189 184 183 185 205 221 218 226 223 216 214 207 202 204 193 190 203 207 205 206 203 195
269 259 258 252 249 247 244 242 245 246 242 242 246 248 237 247 244 244 237 203 188 193 188 183 180 178 188 192 225 228 231 207 208 201 201 191 193 191 186 186 198 201 203 201
262 257 251 250 244 246 238 236 240 243 244 246 246 246 242 239 240 245 244 248 257 225 193 184 183 180 183 179 227 230 230 212 207 204 200 195 194 201 199 197 202 210 212 206
263 257 260 255 251 241 240 236 241 252 254 248 246 248 247 245 239 241 243 246 253 241 202 190 184 184 189 201 198 204 227 216 216 207 224 206 202 199 199 197 204 218 221 217
272 259 258 258 254 245 241 242 236 241 241 242 248 245 237 239 240 243 243 245 249 253 225 193 190 185 193 203 214 223 222 220 220 219 214 211 205 205 199 204 204 212 224 218
282 263 254 256 246 238 236 237 239 243 241 241 245 248 244 238 239 242 244 238 243 253 235 197 190 186 188 212 218 212 227 231 230 226 222 218 215 212 207 208 220 210 232 186
281 269 253 248 251 251 245 241 237 239 238 240 245 243 253 241 239 240 240 243 241 246 246 200 193 211 211 189 231 189 193 198 235 235 236 232 231 233 206 207 229 251 197 204
277 269 254 249 246 247 243 242 242 241 243 237 238 237 243 249 243 242 241 244 245 240 243 249 238 203 206 196 201 195 185 190 190 234 233 238 239 234 204 195 248 251 238 221
276 268 256 244 246 251 242 242 241 238 236 236 240 241 238 239 242 242 245 247 249 245 243 248 250 234 234 206 215 209 215 193 193 197 227 234 229 207 206 242 248 243 253 241
273 264 263 257 257 253 247 241 240 238 237 236 237 241 241 239 237 241 249 251 253 249 246 247 245 237 228 237 237 230 234 232 210 204 223 231 239 242 244 246 246 246 249 208
271 262 267 258 258 253 246 240 239 240 238 240 240 239 248 253 248 247 247 251 250 249 247 247 245 247 241 239 222 222 223 219 212 199 210 238 239 241 242 244 247 249 245 209
265 262 263 251 260 254 242 237 235 237 239 236 235 239 248 248 250 250 250 252 251 252 249 246 243 246 246 201 206 198 204 218 215 216 232 238 238 240 241 243 243 240 232 255
263 258 259 252 256 237 239 249 235 230 237 240 240 242 246 247 252 256 258 259 255 255 251 245 246 246 245 236 217 226 215 221 225 231 236 238 237 238 238 236 234 246 250 218
254 260 254 245 241 248 234 235 226 230 233 243 240 243 243 245 249 256 267 269 263 258 254 251 248 245 241 244 233 217 208 214 230 235 233 231 230 233 234 229 240 245 249 253
251 248 242 240 236 231 235 247 247 239 229 246 246 242 242 242 241 254 273 273 270 265 261 259 252 248 242 236 225 219 205 199 218 223 216 223 227 227 225 239 242 244 248 248
233 225 224 231 235 241 246 258 245 222 224 241 244 242 242 240 249 260 276 275 276 274 270 264 249 239 236 227 221 217 210 192 208 222 223 227 230 234 239 241 241 243 247 250
188 200 216 225 231 231 264 253 224 230 236 239 242 241 239 246 258 264 279 283 290 289 282 262 249 240 232 222 218 219 217 220 212 217 228 234 237 239 240 241 243 245 249 253
182 202 209 217 220 241 253 248 237 241 240 239 241 240 243 246 254 265 277 284 299 311 292 276 226 202 213 214 220 224 228 227 223 215 227 235 235 237 238 239 242 246 250 254
202 257 237 227 242 234 246 243 244 241 239 241 244 239 249 248 256 260 265 273 280 294 294 285 194 195 211 222 224 232 233 234 232 231 228 237 236 236 238 242 245 248 252 256
253 275 252 236 239 242 259 260 248 243 241 243 247 244 251 253 256 259 255 261 266 278 279 282 255 239 232 245 244 243 243 243 237 238 239 242 242 240 244 246 249 254 256 258
323 315 273 273 308 284 273 267 260 249 243 250 248 247 257 259 259 261 255 260 263 266 272 269 264 264 277 253 266 265 263 256 247 241 241 243 248 251 248 250 254 262 268 266